Girona, Spain

1:16 PM CEST on September 25, 2017 (GMT +0200)
Girona

Weather History for LEGE - August, 2013

Change the Weather History Date:

Wednesday, August 21, 2013

  Actual Average Record
Temperature  
Mean Temperature 73 °F -  
Max Temperature 88 °F 79 °F 100 °F (2012)
Min Temperature 58 °F 58 °F 50 °F (1996)
Cooling Degree Days 8    
Growing Degree Days 23 (Base 50)    
Moisture  
Dew Point 58 °F    
Average Humidity 66    
Maximum Humidity 100    
Minimum Humidity 24    
Precipitation  
Precipitation 0.00 in 0.08 in - ()
Sea Level Pressure  
Sea Level Pressure 30.09 in    
Wind  
Wind Speed 2 mph ()    
Max Wind Speed 9 mph    
Max Gust Speed -    
Visibility 7.8 miles    
Events      
Averages and records for this station are not official NWS values.
T = Trace of Precipitation, MM = Missing Value Source: Averaged Metar Reports

Daily Weather History Graph

Daily Weather History Graph

Search for Another Location

Airport or City:

Trip Planner

Search our weather history database for the weather conditions in past years. The results will help you decide how hot, cold, wet, or windy it might be!

Date:

Astronomy

Aug. 21, 2013 Rise Set
Actual Time 7:03 AM CEST 8:40 PM CEST
Civil Twilight 6:33 AM CEST 9:09 PM CEST
Nautical Twilight 5:58 AM CEST 9:45 PM CEST
Astronomical Twilight 5:19 AM CEST 10:22 PM CEST
Moon 8:37 PM CEST (8/21) 7:26 AM CEST (8/21)
Length of Visible Light 14h 35m
Length of Day
13h 36m
Full, 100% of the Moon is Illuminated
Aug 21
Full
Aug 28
Last Quarter
Sep 5
New
Sep 12
First Quarter
Sep 19
Full

Hourly Weather History & Observations

Time (CEST) Temp. Heat Index Dew Point Humidity Pressure Visibility Wind Dir Wind Speed Gust Speed Precip Events Conditions
12:00 AM 66.2 °F - 60.8 °F 83% 30.12 in - Calm Calm - N/A   Clear
12:30 AM 64.4 °F - 59.0 °F 83% 30.12 in - Variable 2.3 mph - N/A   Clear
1:00 AM 62.6 °F - 59.0 °F 88% 30.12 in - Calm Calm - N/A   Clear
1:30 AM 62.6 °F - 59.0 °F 88% 30.15 in - Calm Calm - N/A   Clear
2:00 AM 62 °F - 59 °F 86% 30.13 in 6 mi Calm Calm - -  
2:00 AM 62.6 °F - 59.0 °F 88% 30.15 in - Calm Calm - N/A   Clear
2:30 AM 60.8 °F - 59.0 °F 94% 30.12 in - Variable 1.2 mph - N/A   Clear
3:00 AM 60.8 °F - 57.2 °F 88% 30.12 in - Variable 1.2 mph - N/A   Clear
3:30 AM 60.8 °F - 59.0 °F 94% 30.12 in - Calm Calm - N/A   Clear
4:00 AM 60.8 °F - 57.2 °F 88% 30.12 in - Calm Calm - N/A   Clear
4:30 AM 60.8 °F - 59.0 °F 94% 30.12 in 6.2 mi Calm Calm - N/A   Partly Cloudy
5:00 AM 59.0 °F - 57.2 °F 94% 30.12 in - Calm Calm - N/A   Clear
5:30 AM 60.8 °F - 57.2 °F 88% 30.12 in - Calm Calm - N/A   Clear
6:00 AM 59.0 °F - 57.2 °F 94% 30.12 in - Calm Calm - N/A   Clear
6:30 AM 59.0 °F - 57.2 °F 94% 30.12 in - Calm Calm - N/A   Clear
7:00 AM 59.0 °F - 57.2 °F 94% 30.12 in - Calm Calm - N/A   Clear
7:30 AM 57.2 °F - 57.2 °F 100% 30.12 in - Variable 1.2 mph - N/A   Clear
8:00 AM 62 °F - 60 °F 90% 30.12 in 19 mi Calm Calm - -   Clear
8:00 AM 60.8 °F - 59.0 °F 94% 30.12 in - Calm Calm - N/A   Clear
8:30 AM 64.4 °F - 60.8 °F 88% 30.12 in - Calm Calm - N/A   Clear
9:00 AM 68.0 °F - 59.0 °F 73% 30.12 in - Calm Calm - N/A   Clear
9:30 AM 71.6 °F - 60.8 °F 69% 30.12 in - Calm Calm - N/A   Clear
10:00 AM 73.4 °F - 60.8 °F 65% 30.12 in - Calm Calm - N/A   Clear
10:30 AM 75.2 °F - 57.2 °F 53% 30.12 in - Calm Calm - N/A   Clear
11:00 AM 77.0 °F - 50.0 °F 39% 30.12 in - Calm Calm - N/A   Clear
11:30 AM 78.8 °F - 50.0 °F 36% 30.12 in - NE 1.2 mph - N/A   Clear
12:00 PM 78.8 °F - 51.8 °F 39% 30.09 in 6.2 mi North 3.5 mph - N/A   Partly Cloudy
12:30 PM 80.6 °F - 51.8 °F 37% 30.09 in 6.2 mi South 1.2 mph - N/A   Partly Cloudy
1:00 PM 82.4 °F - 51.8 °F 35% 30.09 in 6.2 mi Variable 2.3 mph - N/A   Partly Cloudy
1:30 PM 82.4 °F 81.4 °F 53.6 °F 37% 30.09 in 6.2 mi NE 1.2 mph - N/A   Partly Cloudy
2:00 PM 88 °F - 56 °F 24% 30.05 in 19 mi ENE 3.5 mph - -   Scattered Clouds
2:00 PM 84.2 °F 82.8 °F 53.6 °F 35% 30.09 in 6.2 mi Variable 2.3 mph - N/A   Partly Cloudy
2:30 PM 86.0 °F 84.5 °F 55.4 °F 35% 30.06 in 6.2 mi ESE 2.3 mph - N/A   Partly Cloudy
3:00 PM 84.2 °F 83.5 °F 57.2 °F 40% 30.06 in 6.2 mi SSW 8.1 mph - N/A   Partly Cloudy
3:30 PM 84.2 °F 83.5 °F 57.2 °F 40% 30.06 in 6.2 mi SSW 6.9 mph - N/A   Partly Cloudy
4:00 PM 84.2 °F 83.0 °F 55.4 °F 37% 30.06 in 6.2 mi South 9.2 mph - N/A   Partly Cloudy
4:30 PM 84.2 °F 83.5 °F 57.2 °F 40% 30.06 in 6.2 mi South 8.1 mph - N/A   Partly Cloudy
5:00 PM 84.2 °F 83.5 °F 57.2 °F 40% 30.06 in 6.2 mi South 8.1 mph - N/A   Partly Cloudy
5:30 PM 84.2 °F 83.5 °F 57.2 °F 40% 30.06 in 6.2 mi South 6.9 mph - N/A   Partly Cloudy
6:00 PM 82.4 °F 82.0 °F 57.2 °F 42% 30.06 in 6.2 mi South 8.1 mph - N/A   Partly Cloudy
6:30 PM 80.6 °F 81.1 °F 59.0 °F 48% 30.06 in 6.2 mi South 8.1 mph - N/A   Partly Cloudy
7:00 PM 80.6 °F 81.1 °F 59.0 °F 48% 30.04 in 6.2 mi South 8.1 mph - N/A   Partly Cloudy
7:30 PM 78.8 °F - 59.0 °F 51% 30.04 in - SSW 6.9 mph - N/A   Clear
8:00 PM 78 °F - 61 °F 46% 30.03 in 12 mi SSW 8.1 mph - -  
8:00 PM 77.0 °F - 60.8 °F 57% 30.04 in - SSW 6.9 mph - N/A   Clear
8:30 PM 75.2 °F - 60.8 °F 61% 30.04 in - SSW 6.9 mph - N/A   Clear
9:00 PM 73.4 °F - 60.8 °F 65% 30.06 in - SSW 3.5 mph - N/A   Clear
9:30 PM 71.6 °F - 62.6 °F 73% 30.06 in - SSW 3.5 mph - N/A   Clear
10:00 PM 71.6 °F - 62.6 °F 73% 30.06 in - Variable 2.3 mph - N/A   Clear
10:30 PM 69.8 °F - 62.6 °F 78% 30.06 in - Calm Calm - N/A   Clear
11:00 PM 69.8 °F - 62.6 °F 78% 30.06 in - Calm Calm - N/A   Clear
11:30 PM 68.0 °F - 62.6 °F 83% 30.06 in - Calm Calm - N/A   Clear